Location: Sihaung
(22.8641°N, 94.0549°E)
Time: 12:44:04
(UTC+00:00)

Meteosat 1 Rocket2 - Pass Details

Date: 03 March 2021
Orbit: 485 x 2306 km, 28.3° (Epoch: 17 April)

Event Time Altitude Azimuth Distance (km) Brightness Sun altitude
Exits shadow 23:18:23 12° 289° (WNW) 2,867 5.8 -11.0°
Maximum altitude 23:25:00 75° 14° (NNE) 853 3.8 -9.5°
Drops below altitude 10° 23:29:42 10° 100° (E) 2,044 7.4 -8.4°
Sets 23:31:40 0° 102° (ESE) 2,813 8.7 -8.0°
